Hourly Data Report for January 08, 2013

BAGOTVILLE A
QUEBEC

48°20'00.000" N
71°00'00.000" W
159.10 m
7060400
71727
YBG

Download Data

Hourly Data (January 2013)
Hourly Data Report for January 8, 2013
TIME
LST
Temp Definition
°C
Dew Point Definition
°C
Rel Hum Definition
%
Precip. Amount Definition
mm

Wind Dir Definition
10's deg

Wind Spd Definition
km/h
Visibility Definition
km
Stn Press Definition
kPa
Hmdx Definition


Wind Chill Definition


Weather Definition


00:00 -16.3 -20.7 69   10 20 19.3 99.56   -26 Snow Showers
01:00 -15.3 -18.2 78   9 20 12.9 99.46   -25 Snow Showers
02:00 -14.2 -18.0 73   9 22 8.0 99.37   -24 Snow Showers
03:00 -13.8 -16.4 81   10 19 4.8 99.35   -22 Snow Showers
04:00 -13.2 -15.7 81   9 19 8.0 99.25   -22 Snow Showers
05:00 -11.5 -13.8 83   9 22 16.1 99.17   -20 Snow Showers
06:00 -10.0 -12.9 79   9 6 16.1 99.17   -14 Snow Showers
07:00 -11.2 -13.4 84   8 17 24.1 99.20   -19 Mostly Cloudy
08:00 -11.1 -12.9 87   10 13 40.2 99.32   -18 Cloudy
09:00 -2.3 -5.8 77   25 26 40.2 99.31   -9 Mostly Cloudy
10:00 -1.0 -1.6 96   24 33 24.1 99.34   -8 Cloudy
11:00 -0.1 -3.6 77   26 33 24.1 99.34   -7 Cloudy
12:00 0.5 -3.7 73   23 35LegendEE 32.2 99.37     Cloudy
13:00 0.6 -2.7 79   23 37LegendEE 24.1 99.44     Cloudy
14:00 1.2 -1.9 80   24 22 24.1 99.52     Mostly Cloudy
15:00 1.1 -1.4 83   23 28 40.2 99.69     Snow Showers
16:00 0.9 -1.5 84   23 7LegendEE 4.8 99.83     Snow Showers
17:00 -0.7 -2.9 85   32 9LegendEE 9.7 99.95   -4LegendEE Snow Showers
18:00 -0.8 -1.9 92   32 11LegendEE 16.1 100.10   -5LegendEE Snow Showers
19:00 -1.1 -4.9 75   32 9LegendEE 24.1 100.21   -4LegendEE Mostly Cloudy
20:00 -2.0 -3.9 87   27 13LegendEE 24.1 100.33   -6LegendEE Mostly Cloudy
21:00 -2.2 -3.9 88   32 9LegendEE 24.1 100.39   -6LegendEE Mostly Cloudy
22:00 -2.2 -4.2 86   32 6LegendEE 24.1 100.45   -5LegendEE Mostly Cloudy
23:00 -2.5 -6.0 77   27 13LegendEE 24.1 100.49   -7LegendEE Cloudy

Notes on Data Quality.

Legend

  • E = Estimated
  • M = Missing
  • NA = Not Available*
  • [empty] = Indicates an unobserved value
Date modified: